Weather History for Atlantic City, NJ

Change the Weather History Date:

Sunday, November 10, 2013

  Actual Average Record
Temperature  
Mean Temperature 55 °F 49 °F  
Max Temperature 64 °F 58 °F 76 °F (1999)
Min Temperature 45 °F 39 °F 19 °F (2003)
Degree Days  
Heating Degree Days 10 16  
Month to date heating degree days 158 151  
Since 1 July heating degree days 523 509  
Cooling Degree Days 0 0  
Month to date cooling degree days 0 0  
Year to date cooling degree days 1088 1054  
Growing Degree Days 4 (Base 50)    
Moisture  
Dew Point 33 °F    
Average Humidity 52    
Maximum Humidity 76    
Minimum Humidity 27    
Precipitation  
Precipitation 0.00 in 0.10 in 3.02 in (1948)
Month to date precipitation 0.46 1.10  
Year to date precipitation 37.97 35.89  
Snow  
Snow 0.00 in 0.00 in 0.00 in (1903)
Month to date snowfall 0.0 0.0  
Since 1 July snowfall 0.0 0.0  
Since 1 September snowfall 0.0 0.0  
Snow Depth 0.00 in    
Sea Level Pressure  
Sea Level Pressure 30.00 in    
Wind  
Wind Speed 14 mph (West)    
Max Wind Speed 29 mph    
Max Gust Speed 42 mph    
Visibility 10 miles    
Events      
T = Trace of Precipitation, MM = Missing Value Source: NWS Daily Summary

Daily Weather History Graph

Daily Weather History Graph

Search for Another Location

Airport:

Trip Planner

Search our weather history database for the weather conditions in past years. The results will help you decide how hot, cold, wet, or windy it might be!

Date:

Astronomy

Nov. 10, 2013 Rise Set
Actual Time 6:36 AM EST 4:47 PM EST
Civil Twilight 6:08 AM EST 5:15 PM EST
Nautical Twilight 5:36 AM EST 5:47 PM EST
Astronomical Twilight 5:04 AM EST 6:19 PM EST
Moon 12:49 PM EST (11/10) No Moon Set
Length of Visible Light 11h 07m
Length of Day
10h 10m
First Quarter, 55% of the Moon is Illuminated
Nov 10
First Quarter
Nov 17
Full
Nov 25
Last Quarter
Dec 2
New
Dec 9
First Quarter

Hourly Weather History & Observations

Time (EST) Temp. Windchill Dew Point Humidity Pressure Visibility Wind Dir Wind Speed Gust Speed Precip Events Conditions
12:54 AM 46.9 °F - 37.0 °F 68% 30.01 in 10.0 mi SSW 8.1 mph - N/A   Clear
1:54 AM 46.0 °F 41.9 °F 37.0 °F 71% 30.01 in 10.0 mi SW 8.1 mph - N/A   Clear
2:54 AM 46.0 °F 42.5 °F 36.0 °F 68% 29.99 in 10.0 mi SW 6.9 mph - N/A   Clear
3:54 AM 45.0 °F 40.1 °F 36.0 °F 71% 29.99 in 10.0 mi SW 9.2 mph - N/A   Clear
4:54 AM 45.0 °F 40.6 °F 36.0 °F 71% 29.98 in 10.0 mi SW 8.1 mph - N/A   Clear
5:54 AM 45.0 °F 40.6 °F 37.0 °F 74% 29.98 in 10.0 mi WSW 8.1 mph - N/A   Clear
6:54 AM 45.0 °F 40.1 °F 37.0 °F 74% 29.98 in 10.0 mi SW 9.2 mph - N/A   Clear
7:54 AM 48.0 °F - 37.0 °F 66% 29.98 in 10.0 mi WSW 8.1 mph - N/A   Clear
8:54 AM 53.1 °F - 36.0 °F 52% 29.97 in 10.0 mi WSW 12.7 mph - N/A   Clear
9:54 AM 57.9 °F - 35.1 °F 42% 29.95 in 10.0 mi West 16.1 mph 24.2 mph N/A   Clear
10:54 AM 62.1 °F - 33.1 °F 34% 29.92 in 10.0 mi WSW 17.3 mph 26.5 mph N/A   Clear
11:54 AM 64.0 °F - 33.1 °F 31% 29.89 in 10.0 mi West 13.8 mph 31.1 mph N/A   Clear
12:54 PM 63.0 °F - 28.9 °F 28% 29.88 in 10.0 mi West 20.7 mph 36.8 mph N/A   Partly Cloudy
1:54 PM 61.0 °F - 28.9 °F 30% 29.89 in 10.0 mi WNW 28.8 mph 35.7 mph N/A   Clear
2:54 PM 57.9 °F - 30.0 °F 35% 29.92 in 9.0 mi NW 20.7 mph 35.7 mph N/A   Overcast
3:54 PM 55.9 °F - 32.0 °F 40% 29.96 in 9.0 mi WNW 21.9 mph 28.8 mph N/A   Scattered Clouds
4:54 PM 51.1 °F - 30.9 °F 46% 30.01 in 8.0 mi WNW 16.1 mph 23.0 mph N/A   Clear
5:54 PM 51.1 °F - 28.9 °F 43% 30.04 in 10.0 mi WNW 17.3 mph - N/A   Clear
6:54 PM 51.1 °F - 30.0 °F 44% 30.07 in 10.0 mi WNW 19.6 mph 26.5 mph N/A   Clear
7:54 PM 48.9 °F - 30.0 °F 48% 30.09 in 10.0 mi WNW 13.8 mph - N/A   Partly Cloudy
8:54 PM 48.0 °F - 28.0 °F 46% 30.11 in 10.0 mi West 11.5 mph 17.3 mph N/A   Clear
9:54 PM 46.9 °F - 26.1 °F 44% 30.12 in 10.0 mi West 10.4 mph - N/A   Clear
10:54 PM 45.0 °F 40.1 °F 27.0 °F 49% 30.13 in 10.0 mi West 9.2 mph - N/A   Clear
11:54 PM 45.0 °F 39.3 °F 27.0 °F 49% 30.14 in 10.0 mi West 11.5 mph - N/A   Clear